Total_Precipitation_Accumulation
0.07 0.07 0.06 0.05 0.04 0.05 0.06 0.07 0.07 0.08 0.10 0.14 0.17 0.18 0.23 0.24 0.21 0.20 0.17 0.13 0.11 0.15 0.25 0.36 0.51 0.72 0.93 1.03 1.06 0.99 0.94 0.86 0.76 0.69 0.68 0.71 0.81 0.91 0.98 0.94 0.98 1.02 0.99
0.04 0.04 0.04 0.03 0.02 0.02 0.03 0.03 0.04 0.05 0.06 0.09 0.09 0.12 0.16 0.16 0.15 0.18 0.19 0.19 0.16 0.15 0.23 0.28 0.36 0.50 0.78 1.01 1.11 1.08 1.03 1.01 0.97 0.91 0.80 0.77 0.81 0.89 0.98 1.05 0.90 0.85 0.82
0.02 0.02 0.02 0.02 0.02 0.02 0.03 0.03 0.03 0.03 0.04 0.06 0.08 0.10 0.11 0.12 0.13 0.16 0.20 0.22 0.22 0.20 0.22 0.31 0.35 0.42 0.60 0.85 1.09 1.27 1.15 1.10 1.15 1.14 0.99 0.89 0.83 0.89 0.92 1.05 1.07 0.97 0.86
0.02 0.03 0.03 0.03 0.02 0.02 0.05 0.06 0.06 0.06 0.06 0.07 0.10 0.13 0.13 0.14 0.13 0.16 0.22 0.22 0.24 0.23 0.22 0.27 0.37 0.43 0.54 0.68 0.89 1.23 1.35 1.31 1.30 1.29 1.22 1.11 0.94 0.95 0.98 1.03 1.11 1.12 1.06
0.03 0.03 0.04 0.05 0.06 0.07 0.09 0.12 0.10 0.13 0.12 0.10 0.12 0.16 0.18 0.21 0.22 0.22 0.27 0.28 0.27 0.25 0.25 0.26 0.32 0.35 0.44 0.59 0.78 1.05 1.35 1.49 1.48 1.48 1.43 1.34 1.19 1.04 1.03 1.08 1.13 1.23 1.24
0.02 0.02 0.03 0.04 0.07 0.11 0.15 0.17 0.15 0.14 0.16 0.17 0.22 0.24 0.28 0.29 0.27 0.22 0.26 0.32 0.32 0.29 0.32 0.31 0.30 0.29 0.31 0.40 0.60 0.85 1.14 1.42 1.56 1.60 1.63 1.61 1.49 1.32 1.14 1.10 1.11 1.23 1.37
0.02 0.02 0.03 0.03 0.04 0.06 0.08 0.09 0.11 0.11 0.11 0.12 0.17 0.19 0.20 0.23 0.22 0.19 0.22 0.30 0.38 0.42 0.43 0.44 0.42 0.37 0.34 0.34 0.35 0.50 0.76 1.12 1.45 1.60 1.69 1.74 1.70 1.60 1.42 1.25 1.19 1.22 1.35
0.02 0.02 0.02 0.02 0.02 0.02 0.02 0.02 0.04 0.06 0.06 0.06 0.13 0.17 0.15 0.14 0.13 0.13 0.16 0.23 0.32 0.41 0.46 0.49 0.51 0.51 0.46 0.41 0.30 0.29 0.41 0.70 1.10 1.50 1.73 1.84 1.96 1.94 1.77 1.56 1.40 1.37 1.41
0.02 0.01 0.01 0.02 0.01 0.02 0.02 0.02 0.02 0.05 0.05 0.04 0.07 0.20 0.28 0.21 0.14 0.07 0.09 0.13 0.18 0.22 0.29 0.36 0.44 0.50 0.52 0.51 0.43 0.33 0.30 0.46 0.74 1.14 1.59 1.90 2.13 2.33 2.27 1.97 1.74 1.63 1.58
0.02 0.02 0.02 0.02 0.02 0.02 0.02 0.02 0.02 0.04 0.06 0.07 0.07 0.10 0.18 0.22 0.28 0.15 0.04 0.04 0.05 0.08 0.11 0.17 0.24 0.32 0.41 0.46 0.49 0.51 0.46 0.43 0.64 0.87 1.23 1.71 2.17 2.58 2.83 2.60 2.18 1.87 1.75
0.01 0.01 0.01 0.02 0.02 0.02 0.02 0.02 0.03 0.04 0.06 0.10 0.12 0.13 0.13 0.12 0.17 0.27 0.13 0.02 0.02 0.03 0.04 0.08 0.12 0.18 0.26 0.35 0.43 0.51 0.58 0.57 0.70 0.86 1.02 1.37 1.87 2.51 2.99 3.02 2.68 2.28 1.97
0.01 0.02 0.02 0.02 0.03 0.03 0.03 0.04 0.05 0.06 0.08 0.10 0.13 0.16 0.20 0.23 0.20 0.26 0.23 0.08 0.03 0.02 0.03 0.04 0.07 0.13 0.21 0.30 0.39 0.53 0.61 0.65 0.73 0.86 0.88 1.05 1.40 1.95 2.67 3.08 3.02 2.72 2.38
0.02 0.02 0.03 0.04 0.05 0.05 0.06 0.07 0.09 0.11 0.12 0.15 0.16 0.17 0.19 0.21 0.22 0.29 0.33 0.19 0.08 0.03 0.02 0.04 0.06 0.11 0.19 0.26 0.32 0.42 0.49 0.54 0.61 0.72 0.75 0.74 0.87 1.28 2.00 2.78 3.19 3.12 2.87
0.02 0.02 0.03 0.05 0.06 0.07 0.08 0.10 0.13 0.15 0.17 0.20 0.20 0.21 0.23 0.21 0.24 0.30 0.36 0.39 0.28 0.09 0.03 0.03 0.04 0.09 0.14 0.19 0.26 0.34 0.35 0.40 0.45 0.54 0.64 0.65 0.64 0.75 1.17 1.96 2.79 3.31 3.27
0.02 0.03 0.05 0.08 0.10 0.11 0.13 0.15 0.17 0.19 0.21 0.22 0.24 0.26 0.30 0.28 0.27 0.27 0.31 0.42 0.58 0.42 0.11 0.03 0.05 0.08 0.12 0.15 0.21 0.27 0.27 0.32 0.37 0.43 0.51 0.58 0.61 0.63 0.77 1.10 1.81 2.66 3.30
0.03 0.04 0.07 0.09 0.12 0.16 0.18 0.22 0.23 0.23 0.24 0.25 0.28 0.32 0.34 0.34 0.33 0.32 0.33 0.36 0.47 0.58 0.36 0.07 0.06 0.09 0.14 0.16 0.21 0.25 0.24 0.30 0.34 0.39 0.41 0.45 0.53 0.61 0.69 0.83 1.12 1.79 2.55
0.06 0.07 0.08 0.10 0.12 0.17 0.21 0.25 0.26 0.29 0.32 0.32 0.34 0.38 0.37 0.37 0.41 0.40 0.40 0.40 0.40 0.49 0.49 0.13 0.05 0.08 0.16 0.22 0.22 0.23 0.23 0.24 0.28 0.34 0.38 0.39 0.43 0.51 0.60 0.70 0.84 1.19 1.85
0.10 0.11 0.13 0.14 0.15 0.18 0.23 0.28 0.31 0.33 0.38 0.43 0.44 0.44 0.43 0.43 0.44 0.45 0.50 0.49 0.44 0.42 0.50 0.32 0.10 0.08 0.14 0.23 0.27 0.26 0.24 0.23 0.23 0.29 0.34 0.40 0.43 0.48 0.54 0.62 0.72 0.85 1.23
0.18 0.19 0.21 0.24 0.26 0.28 0.34 0.36 0.37 0.40 0.43 0.46 0.50 0.54 0.54 0.54 0.53 0.52 0.56 0.57 0.54 0.47 0.48 0.47 0.25 0.14 0.18 0.24 0.30 0.30 0.29 0.28 0.26 0.29 0.31 0.37 0.44 0.49 0.52 0.57 0.64 0.73 0.84
0.29 0.32 0.35 0.38 0.40 0.45 0.63 0.68 0.56 0.51 0.49 0.51 0.54 0.58 0.62 0.67 0.68 0.69 0.74 0.72 0.69 0.65 0.57 0.54 0.42 0.30 0.28 0.30 0.37 0.38 0.34 0.32 0.35 0.35 0.34 0.34 0.40 0.46 0.49 0.49 0.48 0.53 0.67
0.38 0.42 0.44 0.45 0.47 0.59 0.95 1.10 0.85 0.70 0.62 0.58 0.56 0.60 0.64 0.73 0.88 1.04 1.14 1.06 0.92 0.90 0.82 0.76 0.63 0.48 0.41 0.44 0.51 0.48 0.48 0.39 0.41 0.45 0.42 0.35 0.33 0.32 0.37 0.44 0.49 0.51 0.56
0.41 0.42 0.44 0.43 0.42 0.55 0.92 1.10 0.88 0.68 0.54 0.52 0.52 0.49 0.51 0.58 0.69 0.82 1.00 1.01 0.97 1.08 1.12 1.03 0.89 0.75 0.57 0.51 0.59 0.68 0.71 0.69 0.59 0.49 0.49 0.47 0.41 0.40 0.38 0.37 0.47 0.51 0.59
0.29 0.28 0.28 0.27 0.25 0.35 0.74 0.92 0.74 0.47 0.33 0.35 0.37 0.38 0.38 0.41 0.49 0.50 0.60 0.64 0.70 0.80 0.97 1.10 1.13 0.92 0.74 0.65 0.78 0.91 0.93 0.91 0.72 0.61 0.69 0.75 0.63 0.56 0.50 0.50 0.56 0.54 0.60
0.17 0.15 0.13 0.12 0.11 0.17 0.55 0.81 0.62 0.28 0.22 0.26 0.31 0.34 0.35 0.37 0.42 0.53 0.59 0.53 0.48 0.50 0.67 0.87 1.07 1.00 0.90 0.91 1.08 1.27 1.33 1.31 1.08 0.85 0.82 0.97 0.85 0.76 0.69 0.64 0.61 0.55 0.55
0.11 0.09 0.07 0.05 0.05 0.08 0.36 0.75 0.62 0.25 0.21 0.22 0.27 0.34 0.37 0.34 0.41 0.57 0.64 0.57 0.44 0.41 0.45 0.66 0.89 1.01 1.07 1.20 1.40 1.64 1.72 1.74 1.60 1.29 1.07 1.08 1.01 0.92 0.88 0.85 0.76 0.66 0.59
0.07 0.06 0.05 0.04 0.03 0.04 0.20 0.61 0.72 0.34 0.23 0.21 0.21 0.29 0.44 0.47 0.48 0.54 0.59 0.60 0.57 0.45 0.37 0.37 0.42 0.53 0.67 0.80 1.06 1.36 1.52 1.64 1.64 1.59 1.33 1.22 1.20 1.14 1.20 1.01 0.81 0.68 0.60